Overview Statistics Trail Chart Weather Telemetry Raw packets
 

This is the latest recevied weather packets stored in our database for station/object KF7SOJ. If no packets are shown the sender has not sent any weather packets the latest 10 day(s).

<< 11 12 13 14 15 16 17 >>
Time Temp. Humidity Pressure Rain* Wind** Luminosity Snow
1788538880 25° C 26% 925.9 hPa 0 mm - 573 W/m² -
1788538576 24.44° C 26% 925.9 hPa 0 mm - 566 W/m² -
1788538271 24.44° C 25% 925.8 hPa 0 mm - 554 W/m² -
1788537966 23.89° C 25% 925.8 hPa 0 mm - 550 W/m² -
1788537662 23.89° C 27% 925.9 hPa 0 mm - 540 W/m² -
1788537362 23.89° C 29% 925.6 hPa 0 mm - 519 W/m² -
1788537056 22.78° C 30% 925.7 hPa 0 mm - 462 W/m² -
1788536749 22.78° C 29% 925.8 hPa 0 mm - 484 W/m² -
1788536444 22.22° C 32% 925.8 hPa 0 mm - 466 W/m² -
1788536144 22.22° C 32% 925.7 hPa 0 mm - 447 W/m² -
1788535841 21.67° C 32% 925.8 hPa 0 mm - 424 W/m² -
1788535536 21.11° C 34% 926 hPa 0 mm - 408 W/m² -
1788535231 20.56° C 34% 925.9 hPa 0 mm - 396 W/m² -
1788534927 20° C 34% 925.6 hPa 0 mm - 312 W/m² -
1788534626 20° C 34% 925.7 hPa 0 mm - 257 W/m² -
1788534326 20.56° C 34% 925.7 hPa 0 mm - 193 W/m² -
1788534021 21.11° C 32% 926 hPa 0 mm - 239 W/m² -
1788533715 21.11° C 32% 925.8 hPa 0 mm - 239 W/m² -
1788533410 20.56° C 34% 926 hPa 0 mm - 251 W/m² -
1788533107 20.56° C 33% 925.9 hPa 0 mm - 289 W/m² -
1788532802 20° C 33% 925.9 hPa 0 mm - 265 W/m² -
1788532498 19.44° C 34% 925.8 hPa 0 mm - 250 W/m² -
1788532195 19.44° C 34% 925.8 hPa 0 mm - 233 W/m² -
1788531890 18.89° C 36% 925.7 hPa 0 mm - 209 W/m² -
1788531590 18.89° C 36% 925.9 hPa 0 mm - 197 W/m² -

* Rain latest hour (hover to see other rain measurements)
** Current wind speed in m/s (hover to see current wind gust speed)